This is the latest recevied weather packets stored in our database for station/object WV8BRW. If no packets are shown the sender has not sent any weather packets the latest 10 day(s).
| Time | Temp. | Humidity | Pressure | Rain* | Wind** | Luminosity | Snow |
|---|---|---|---|---|---|---|---|
| 1777642641 | 11.11° C | 81% | 1012.6 hPa | 0 mm | - | 174 W/m² | - |
| 1777642338 | 10.56° C | 87% | 1012.7 hPa | 0 mm | - | 460 W/m² | - |
| 1777642034 | 10° C | 89% | 1012.8 hPa | 0 mm | - | 430 W/m² | - |
| 1777641730 | 9.44° C | 92% | 1012.6 hPa | 0 mm | - | 272 W/m² | - |
| 1777641426 | 9.44° C | 93% | 1012.6 hPa | 0 mm | - | 212 W/m² | - |
| 1777641121 | 8.89° C | 92% | 1012.7 hPa | 0 mm | - | 211 W/m² | - |
| 1777640817 | 8.33° C | 94% | 1012.4 hPa | 0 mm | - | 131 W/m² | - |
| 1777640514 | 8.33° C | 98% | 1012.7 hPa | 0 mm | - | 141 W/m² | - |
| 1777640211 | 7.22° C | 99% | 1012.4 hPa | 0 mm | - | 154 W/m² | - |
| 1777639908 | 7.22° C | 99% | 1012.6 hPa | 0 mm | - | 119 W/m² | - |
| 1777639605 | 7.78° C | 99% | 1012.6 hPa | 0 mm | - | 123 W/m² | - |
| 1777639302 | 7.22° C | 99% | 1012.3 hPa | 0 mm | - | 92 W/m² | - |
| 1777638998 | 6.67° C | 99% | 1012.6 hPa | 0 mm | - | 124 W/m² | - |
| 1777638694 | 6.11° C | 99% | 1012.8 hPa | 0 mm | - | 132 W/m² | - |
| 1777638391 | 6.11° C | 99% | 1012.5 hPa | 0 mm | - | 108 W/m² | - |
| 1777638087 | 6.67° C | 99% | 1012.5 hPa | 0 mm | - | 81 W/m² | - |
| 1777637783 | 5° C | 99% | 1012.9 hPa | 0 mm | - | 59 W/m² | - |
| 1777637480 | 4.44° C | 99% | 1012.7 hPa | 0 mm | - | 52 W/m² | - |
| 1777637177 | 3.89° C | 99% | 1012.9 hPa | 0 mm | - | 46 W/m² | - |
| 1777636874 | 3.89° C | 99% | 1013 hPa | 0 mm | - | 47 W/m² | - |
| 1777636570 | 3.33° C | 99% | 1012.8 hPa | 0 mm | - | 41 W/m² | - |
| 1777636266 | 2.78° C | 99% | 1013.1 hPa | 0 mm | - | 38 W/m² | - |
| 1777635966 | 3.33° C | 99% | 1013.3 hPa | 0 mm | - | 36 W/m² | - |
| 1777635662 | 2.22° C | 99% | 1013.1 hPa | 0 mm | - | 33 W/m² | - |
| 1777635359 | 2.22° C | 99% | 1013.3 hPa | 0 mm | - | 33 W/m² | - |
* Rain latest hour (hover to see other rain measurements)
** Current wind speed in m/s (hover to see current wind gust speed)